Showing default

CLARITY-1, 63227

Orbit data source: Space-Track

CLARITY-1, 63227 is an American payload satellite in SSO that was launched on Sat, 15 Mar 2025 UTC via an FALCON 9 launch vehicle from the Air Force Western Test Range (AFWTR). Payload-class satellites include a variety of spacecraft equipped with specific instruments for various scientific and technological missions. These include communications satellites like Starlink; space stations such as the ISS; scientific satellites like the Hubble; Earth observation satellites from companies like Planet Labs, Umbra, and HawkEye 360; GPS; miniature CubeSats for education and research; and military/defense satellites.

Loading next visibility...
Identifier
63227, 2025-052T
Orbit
SSO
Country
Flag of USUS
Related business
Manufacturer
ALBEDO
Mission
Operational Commercial Imaging
Bus & Motor
ALBEDO, Unknown motor
Mass
530 kg wet, 485 kg dry
Launch date (UTC)
2025-03-15 (1 year ago)
Launch vehicle
FALCON 9
Launch site
Air Force Western Test Range (AFWTR)
Object type
Payload
Rocket body
Debris
Shape & HBR
Hex Cyl, 1.1 m
Radar Cross Section
2.290 m², Medium (>0.1 m² and < 1m²)

Expand to show TLE details & history
Last TLE update: 7 hours ago

TLE from 7 hours ago
0 CLARITY-1
1 63227U 25052T   26072.64151369  .00110468  00000-0  52387-3 0  9994
2 63227  97.4222 345.0847 0004175 104.1691 256.0042 15.82645310 56463
Epoch: 2026-03-13T15:23Z
TLE epoch observation values (Epoch: 2026-03-13T15:23:46.782Z)
Latitude
-0.00004°
Longitude
-57.13435°
Altitude
326.815 km
Speed
7.712 km/s
True Right ascension
23h 00m 20s
True Declination
0° 00' 00"
Sunlit
Object was in daylight at epoch
Visualization orbit readout
Latitude
Unknown
Longitude
Unknown
Altitude
Unknown
Speed
Unknown
Apparent Right ascension
Unknown
Apparent Declination
Unknown
Sunlit
N/A
Visualization observer readout
Local Sidereal Time
02:20:33
Azimuth
Unknown
Elevation
Unknown
Doppler factor
Unknown
Orbital elements
Apogee altitude
322.643 km
Perigee altitude
317.05 km
Semi-major axis
6,697.984 km
Eccentricity
0.00042
Inclination
97.4222°
RAAN
345.0847°
Arg. of periapsis
104.1691°
True anomaly
255.95778°
Mean anomaly
256.0042°
Eccentric anomaly
255.98099°
Mean motion
3.95938 °/min
Orbital period
90.92 mins
BSTAR
0.00052387
Loading maneuver chart data...
Computing Atmospheric mass density...
Loading historical data...
Loading historical data...
Loading historical data...
Loading historical data...
Loading historical data...
Loading historical data...
Loading historical data...

Documentation

Showing up to 5 results
|